TimeCST,TemperatureF,Dew PointF,Humidity,Sea Level PressureIn,VisibilityMPH,Wind Direction,Wind SpeedMPH,Gust SpeedMPH,PrecipitationIn,Events,Conditions,WindDirDegrees,DateUTC
12:06 AM,33.8,28.4,81,29.75,8.0,WNW,11.5,-,N/A,,Overcast,300,2013-02-27 06:06:00
12:53 AM,34.0,28.9,82,29.75,7.0,West,10.4,-,0.01,,Overcast,280,2013-02-27 06:53:00
1:53 AM,34.0,28.9,82,29.75,3.0,West,12.7,-,0.01,Snow,Light Snow,280,2013-02-27 07:53:00
2:53 AM,34.0,28.9,82,29.75,3.0,West,12.7,-,0.00,Snow,Light Snow,280,2013-02-27 08:53:00
3:18 AM,33.8,28.4,81,29.76,2.5,WNW,10.4,-,0.00,Snow,Light Snow,290,2013-02-27 09:18:00
3:53 AM,33.1,30.0,89,29.75,2.5,WNW,10.4,-,0.00,Snow,Light Snow,290,2013-02-27 09:53:00
4:07 AM,33.8,30.2,87,29.77,3.0,WNW,9.2,-,0.00,Snow,Light Snow,290,2013-02-27 10:07:00
4:53 AM,33.1,28.9,85,29.77,3.0,West,10.4,-,0.00,Snow,Light Snow,270,2013-02-27 10:53:00
5:04 AM,33.8,28.4,81,29.79,2.0,West,11.5,-,0.00,Snow,Light Snow,280,2013-02-27 11:04:00
5:12 AM,33.8,28.4,81,29.79,1.5,West,11.5,-,0.00,Snow,Light Snow,280,2013-02-27 11:12:00
5:40 AM,33.8,30.2,87,29.80,1.0,West,11.5,-,0.00,Snow,Light Snow,270,2013-02-27 11:40:00
5:53 AM,33.1,28.9,85,29.79,1.2,West,11.5,-,0.00,Snow,Light Snow,270,2013-02-27 11:53:00
6:10 AM,33.8,28.4,81,29.81,1.5,West,11.5,-,0.00,Snow,Light Snow,270,2013-02-27 12:10:00
6:26 AM,33.8,28.4,81,29.81,1.5,West,10.4,-,0.00,Snow,Light Snow,260,2013-02-27 12:26:00
6:35 AM,33.8,28.4,81,29.81,1.8,West,12.7,-,0.00,Snow,Light Snow,270,2013-02-27 12:35:00
6:53 AM,33.1,28.9,85,29.80,1.5,West,13.8,-,0.00,Snow,Light Snow,260,2013-02-27 12:53:00
7:53 AM,33.1,28.0,82,29.81,1.5,West,12.7,-,0.00,Snow,Light Snow,270,2013-02-27 13:53:00
8:24 AM,33.8,26.6,75,29.83,2.0,West,16.1,-,0.00,Snow,Light Snow,280,2013-02-27 14:24:00
8:50 AM,33.8,26.6,75,29.84,2.0,West,15.0,-,0.00,Snow,Light Snow,280,2013-02-27 14:50:00
9:24 AM,33.8,26.6,75,29.84,3.0,WNW,15.0,-,0.02,Snow,Light Snow,290,2013-02-27 15:24:00
9:53 AM,33.1,26.1,75,29.83,4.0,WNW,18.4,-,0.03,,Haze,290,2013-02-27 15:53:00
10:53 AM,33.1,27.0,78,29.84,2.5,WNW,15.0,-,0.02,Snow,Light Snow,290,2013-02-27 16:53:00
11:41 AM,33.8,26.6,75,29.86,3.0,WNW,15.0,23.0,0.03,Snow,Light Snow,300,2013-02-27 17:41:00
11:53 AM,33.1,26.1,75,29.84,3.0,WNW,18.4,24.2,0.03,Snow,Light Snow,300,2013-02-27 17:53:00
12:37 PM,33.8,26.6,75,29.86,2.0,WNW,18.4,27.6,0.02,Snow,Light Snow,290,2013-02-27 18:37:00
12:44 PM,33.8,26.6,75,29.86,1.8,WNW,15.0,-,0.02,Snow,Light Snow,290,2013-02-27 18:44:00
12:53 PM,33.1,26.1,75,29.84,1.8,WNW,17.3,26.5,0.02,Snow,Light Snow,290,2013-02-27 18:53:00
1:09 PM,33.8,26.6,75,29.86,2.0,WNW,20.7,26.5,0.01,Snow,Light Snow,290,2013-02-27 19:09:00
1:53 PM,33.1,27.0,78,29.84,2.0,WNW,15.0,-,0.01,Snow,Light Snow,290,2013-02-27 19:53:00
2:24 PM,33.8,26.6,75,29.86,3.0,WNW,16.1,-,0.00,Snow,Light Snow,290,2013-02-27 20:24:00
2:53 PM,34.0,26.1,73,29.86,3.0,West,21.9,31.1,0.00,Snow,Light Snow,280,2013-02-27 20:53:00
3:53 PM,34.0,26.1,73,29.87,5.0,WNW,13.8,-,0.00,,Haze,290,2013-02-27 21:53:00
4:14 PM,33.8,26.6,75,29.90,2.0,West,13.8,-,0.00,Snow,Light Snow,280,2013-02-27 22:14:00
4:53 PM,33.1,26.1,75,29.90,2.5,WNW,15.0,24.2,0.00,Snow,Light Snow,290,2013-02-27 22:53:00
5:26 PM,32.0,26.6,80,29.93,1.2,WNW,15.0,21.9,0.00,Snow,Light Snow,300,2013-02-27 23:26:00
5:53 PM,32.0,27.0,82,29.92,1.2,WNW,11.5,-,0.00,Snow,Light Snow,300,2013-02-27 23:53:00
6:05 PM,32.0,26.6,80,29.94,1.8,WNW,11.5,-,0.00,Snow,Light Snow,290,2013-02-28 00:05:00
6:13 PM,32.0,26.6,80,29.94,2.5,WNW,13.8,-,0.00,Snow,Light Snow,290,2013-02-28 00:13:00
6:53 PM,32.0,26.1,79,29.94,2.0,WNW,13.8,-,0.00,Snow,Light Snow,290,2013-02-28 00:53:00
7:05 PM,32.0,26.6,80,29.95,2.5,WNW,12.7,-,0.00,Snow,Light Snow,290,2013-02-28 01:05:00
7:13 PM,32.0,26.6,80,29.95,2.5,WNW,15.0,-,0.00,Snow,Light Snow,290,2013-02-28 01:13:00
7:41 PM,30.2,26.6,86,29.95,2.5,West,11.5,-,0.00,Snow,Light Snow,280,2013-02-28 01:41:00
7:53 PM,30.9,27.0,85,29.94,4.0,West,10.4,-,0.00,Snow,Light Snow,280,2013-02-28 01:53:00
8:30 PM,32.0,26.6,80,29.96,2.0,WNW,10.4,18.4,0.00,Snow,Light Snow,290,2013-02-28 02:30:00
8:53 PM,30.9,27.0,85,29.95,3.0,West,13.8,-,0.00,Snow,Light Snow,280,2013-02-28 02:53:00
9:01 PM,32.0,26.6,80,29.96,4.0,West,12.7,-,0.00,Snow,Light Snow,280,2013-02-28 03:01:00
9:53 PM,32.0,26.1,79,29.95,8.0,WNW,11.5,-,0.00,,Overcast,290,2013-02-28 03:53:00
10:53 PM,30.9,25.0,79,29.96,10.0,WNW,8.1,-,N/A,,Overcast,290,2013-02-28 04:53:00
11:53 PM,30.9,25.0,79,29.96,10.0,WNW,10.4,-,N/A,,Overcast,290,2013-02-28 05:53:00